This is the latest recevied weather packets stored in our database for station/object KC4KQE. If no packets are shown the sender has not sent any weather packets the latest 10 day(s).
| Time | Temp. | Humidity | Pressure | Rain* | Wind** | Luminosity | Snow |
|---|---|---|---|---|---|---|---|
| 1777504756 | 29.44° C | 9% | 1011.8 hPa | 0 mm | - | 538 W/m² | - |
| 1777504457 | 28.89° C | 9% | 1011.7 hPa | 0 mm | - | 338 W/m² | - |
| 1777504156 | 29.44° C | 9% | 1011.9 hPa | 0 mm | - | 424 W/m² | - |
| 1777503856 | 30° C | 9% | 1011.9 hPa | 0 mm | - | 369 W/m² | - |
| 1777503556 | 29.44° C | 9% | 1011.9 hPa | 0 mm | - | 390 W/m² | - |
| 1777503256 | 30° C | 9% | 1011.9 hPa | 0 mm | - | 338 W/m² | - |
| 1777502957 | 29.44° C | 9% | 1011.9 hPa | 0 mm | - | 418 W/m² | - |
| 1777502656 | 29.44° C | 10% | 1012.1 hPa | 0 mm | - | 322 W/m² | - |
| 1777502356 | 29.44° C | 9% | 1012.3 hPa | 0 mm | - | 457 W/m² | - |
| 1777502056 | 29.44° C | 9% | 1012.4 hPa | 0 mm | - | 450 W/m² | - |
| 1777501756 | 29.44° C | 9% | 1012.4 hPa | 0 mm | - | 527 W/m² | - |
| 1777501456 | 30° C | 8% | 1012.6 hPa | 0 mm | - | 580 W/m² | - |
| 1777501156 | 29.44° C | 8% | 1012.7 hPa | 0 mm | - | 504 W/m² | - |
| 1777500856 | 29.44° C | 9% | 1012.8 hPa | 0 mm | - | 640 W/m² | - |
| 1777500556 | 29.44° C | 9% | 1012.9 hPa | 0 mm | - | 492 W/m² | - |
| 1777500256 | 30° C | 9% | 1013 hPa | 0 mm | - | 842 W/m² | - |
| 1777499957 | 30.56° C | 9% | 1013.1 hPa | 0 mm | - | 707 W/m² | - |
| 1777499656 | 30.56° C | 9% | 1013.2 hPa | 0 mm | - | 670 W/m² | - |
| 1777499356 | 30° C | 10% | 1013 hPa | 0 mm | - | 807 W/m² | - |
| 1777499056 | 30° C | 9% | 1013 hPa | 0 mm | - | 782 W/m² | - |
| 1777498756 | 30.56° C | 9% | 1013 hPa | 0 mm | - | 800 W/m² | - |
| 1777498456 | 30° C | 9% | 1013.1 hPa | 0 mm | - | 786 W/m² | - |
| 1777498156 | 30° C | 8% | 1013 hPa | 0 mm | - | 837 W/m² | - |
| 1777497856 | 30° C | 8% | 1013.1 hPa | 0 mm | - | 803 W/m² | - |
| 1777497556 | 30° C | 9% | 1013.1 hPa | 0 mm | - | 786 W/m² | - |
* Rain latest hour (hover to see other rain measurements)
** Current wind speed in m/s (hover to see current wind gust speed)